Regional Weather Roundup
Issued by NWS

Home | Current Version | Previous Version | Graphics & Text | Print | Product List | Glossary On
Versions: 1 2 3 4 5 6 7 8 9 10 11 12 13 14 15 16 17 18 19 20 21 22 23 24 25 26 27 28
000
ASUS45 KCYS 101810
RWRWY

WYOMING REGIONAL WEATHER ROUNDUP
NATIONAL WEATHER SERVICE CHEYENNE WY
1100 AM MST SAT DEC 10 2016

NOTE:  "FAIR" INDICATES FEW OR NO CLOUDS BELOW 12,000 FEET
WITH NO SIGNIFICANT WEATHER AND/OR OBSTRUCTIONS TO VISIBILITY.

WYZ001-101900-
YELLOWSTONE NATIONAL PARK

CITY           SKY/WX    TMP DP  RH WIND       PRES   REMARKS
LK YELLOWSTONE   N/A     28  25  88 VRB7      29.72F WCI  21
6HR MIN TEMP:  26; 6HR MAX TEMP:  28; 6HR PCP:  0.03;

W YELLOWSTONE  NOT AVBL

$$
WYZ002>013-054>058-071-098>099-101900-
NORTHERN WYOMING

CITY           SKY/WX    TMP DP  RH WIND       PRES   REMARKS
JACKSON        LGT SNOW  34  34 100 S16       29.76S VSB 1   WCI  23
CODY           FAIR      19  11  70 SW3       29.68F
GREYBULL       FAIR      14   4  64 SW3       29.74F
6HR MIN TEMP:   9; 6HR MAX TEMP:  14;

WORLAND        FAIR      12   5  73 CALM      29.73F
6HR MIN TEMP:   5; 6HR MAX TEMP:  13;

SHERIDAN       FAIR      15   7  70 NE3       29.73F
6HR MIN TEMP:  10; 6HR MAX TEMP:  16;

BUFFALO        FAIR      20  13  74 W3        29.70F
6HR MIN TEMP:   7; 6HR MAX TEMP:  21;

GILLETTE       FAIR      11   7  84 CALM      29.74F
6HR MIN TEMP:   2; 6HR MAX TEMP:  11;

HULETT         MOCLDY    10   5  79 SE3       29.76F
NEWCASTLE      FAIR       9   1  72 S6        29.81F WCI  -1

$$
WYZ014>020-022>026-101>103-101900-
CENTRAL WYOMING

CITY           SKY/WX    TMP DP  RH WIND       PRES   REMARKS
BIG PINEY      PTSUNNY   34  30  85 SW10      29.82F WCI  26
6HR MIN TEMP:  14; 6HR MAX TEMP:  34;

PINEDALE       CLOUDY    32  30  93 MISG      29.83F
DUBOIS         CLOUDY    32  28  86 NW7       29.69F WCI  26
LANDER         FAIR      20  10  65 VRB3      29.71F
6HR MIN TEMP:  11; 6HR MAX TEMP:  20;

RIVERTON       FAIR      21  10  62 CALM      29.72F
6HR MIN TEMP:  10; 6HR MAX TEMP:  22;

CASPER         FAIR      38  27  64 S26G40    29.72F WCI  26
6HR MIN TEMP:  35; 6HR MAX TEMP:  38; 6HR PCP: TRACE;

DOUGLAS        FAIR      45  28  51 MISG      29.74F
6HR MIN TEMP:   4; 6HR MAX TEMP:  45;


$$
WYZ021-027>030-104>119-101900-
SOUTHERN WYOMING

CITY           SKY/WX    TMP DP  RH WIND       PRES   REMARKS
EVANSTON       SNOW      33  31  92 SW14      29.90F VSB 1/4 WCI  23
6HR MIN TEMP:  32; 6HR MAX TEMP:  34; 6HR PCP:  0.02;

KEMMERER       LGT SNOW  34  32  93 SW21G26   29.87F WCI  22
FORT BRIDGER   DRIZZLE   37  37 100 SW24G33   29.90S WCI  26
ROCK SPRINGS   CLOUDY    37  27  67 S7        29.87F WCI  32
6HR MIN TEMP:  30; 6HR MAX TEMP:  37;

DIXON          CLOUDY    39  26  59 SW12G17   29.96F WCI  32
RAWLINS        FAIR      37  22  54 SW31G38   29.84F WCI  24
6HR MIN TEMP:  34; 6HR MAX TEMP:  37;

SARATOGA       FAIR      37  27  65 SW25G36   29.86F WCI  26
LARAMIE        PTSUNNY   41  22  46 SW21G30     N/A
6HR MIN TEMP:  35; 6HR MAX TEMP:  41;

CHEYENNE       FAIR      48  21  34 W22G30    29.82F
6HR MIN TEMP:  32; 6HR MAX TEMP:  48;

TORRINGTON     PTSUNNY   19  13  77 VRB3      29.80F
6HR MIN TEMP:  13; 6HR MAX TEMP:  19;

PINE BLUFFS    MOCLDY    30  23  74 S9        29.84F WCI  22

$$




USA.gov is the U.S. government's official web portal to all federal, state and local government web resources and services.